Regional Weather Roundup
Issued by NWS

Home | Current Version | Previous Version | Text Only | Print | Product List | Glossary Off
Versions: 1 2 3 4 5 6 7 8 9 10 11 12 13 14 15 16 17 18 19 20 21 22 23 24 25 26 27 28

000
ASUS45 KBOI 292010
RWRID
WEATHER ROUNDUP FOR IDAHO
NATIONAL WEATHER SERVICE BOISE ID
200 PM MDT WED OCT 29 2014

NOTE: "FAIR" INDICATES FEW OR NO CLOUDS BELOW 12000 FEET
WITH NO SIGNIFICANT WEATHER AND/OR OBSTRUCTIONS TO VISIBILITY

IDZ012-014-292100-
SOUTHWEST IDAHO


CITY           SKY/WX    TMP DP  RH WIND       PRES   REMARKS
BOISE          PTSUNNY   60  39  45 N3        30.22F
CALDWELL       PTSUNNY   55  37  50 MISG      30.25F
MOUNTAIN HOME  MOSUNNY   62  30  30 NE2       30.22F
$$

IDZ016-017-292100-
SOUTHCENTRAL IDAHO


CITY           SKY/WX    TMP DP  RH WIND       PRES   REMARKS
BURLEY         SUNNY     60  33  36 W9        30.22F
JEROME         MOSUNNY   60  31  33 SW8       30.24F
TWIN FALLS     MOSUNNY   61  34  36 W8        30.23F
$$

IDZ019>023-292100-
SOUTHEAST IDAHO


CITY           SKY/WX    TMP DP  RH WIND       PRES   REMARKS
IDAHO FALLS    PTSUNNY   55  27  34 SW17      30.24F
POCATELLO      PTSUNNY   60  29  30 W8        30.25F
REXBURG        MOSUNNY   52  24  33 W14       30.23F
$$

IDZ006-010-011-018-031-032-292100-
CENTRAL IDAHO MOUNTAINS


CITY           SKY/WX    TMP DP  RH WIND       PRES   REMARKS
MCCALL         PTSUNNY   49  39  68 S8        30.23S
HAILEY         MOSUNNY   57  36  44 SE9       30.24F
STANLEY          N/A     51  29  42 W6        30.28R
SALMON         PTSUNNY   48  36  61 CALM      30.21R
CHALLIS        PTSUNNY   52  37  56 N6        30.22S
$$

IDZ002-004-006-007-026-292100-
NORTHERN IDAHO


CITY           SKY/WX    TMP DP  RH WIND       PRES   REMARKS
LEWISTON       SUNNY     59  47  64 N6        30.18S
LOWELL           N/A     60  49  66 S3        30.21F
COEUR D`ALENE  CLOUDY    52  46  82 W3        30.17R
MULLAN PASS    LGT RAIN  37  37 100 VRB6      30.18S VSB<1/4 WCI  32
$$



USA.gov is the U.S. government's official web portal to all federal, state and local government web resources and services.